When you browse on this site, cookies collect data to enhance your experience and personalize the content and advertising you see.
Visit our Privacy Policy to learn more. By continuing to use the site, you agree to this use of cookies and data.
  • En España
  • Lista de países
  • Para 7 días
  • Temperatura del agua
  • Mapa Satelital
  • El tiempo en el mapa
  • Informadores
  • user-avatar
    Iniciar sesión

    Tiempo cada hora Budkovo

    Hoy, 17 Julio, Miércoles

    Tiempo Temperatura Precipitaciones Viento Presión Humedad
    00:00 +11°C° 0 mm 1 mps 738 mmHg 90%
    01:00 +11°C° 0 mm 1 mps 737 mmHg 90%
    02:00 +11°C° 0 mm 1 mps 737 mmHg 91%
    03:00 +12°C° 0 mm 1 mps 737 mmHg 90%
    04:00 +12°C° 0 mm 2 mps 737 mmHg 89%
    05:00 +13°C° 0 mm 2 mps 737 mmHg 88%
    06:00 +13°C° 0.2 mm 2 mps 737 mmHg 88%
    07:00 +14°C° 0.2 mm 1 mps 737 mmHg 87%
    08:00 +14°C° 0 mm 0 mps 737 mmHg 87%
    09:00 +15°C° 0.2 mm 1 mps 737 mmHg 85%
    10:00 +16°C° 0.2 mm 1 mps 737 mmHg 84%
    11:00 +17°C° 0.2 mm 2 mps 737 mmHg 83%
    12:00 +17°C° 0.2 mm 2 mps 736 mmHg 81%
    13:00 +18°C° 0.2 mm 2 mps 736 mmHg 79%
    14:00 +18°C° 0.2 mm 2 mps 736 mmHg 76%
    15:00 +18°C° 0.1 mm 2 mps 736 mmHg 77%
    16:00 +18°C° 0.1 mm 2 mps 736 mmHg 77%
    17:00 +19°C° 0.1 mm 1 mps 736 mmHg 77%
    18:00 +18°C° 0.1 mm 1 mps 736 mmHg 79%
    19:00 +16°C° 0.1 mm 1 mps 735 mmHg 81%
    20:00 +15°C° 0.1 mm 1 mps 735 mmHg 83%
    21:00 +15°C° 0.1 mm 1 mps 735 mmHg 84%
    22:00 +15°C° 0.1 mm 1 mps 735 mmHg 84%
    23:00 +15°C° 0.1 mm 1 mps 735 mmHg 85%

    Mañana, 18 Julio, Jueves

    Tiempo Temperatura Precipitaciones Viento Presión Humedad
    00:00 +14°C° 0.1 mm 1 mps 735 mmHg 86%
    01:00 +14°C° 0.1 mm 2 mps 735 mmHg 88%
    02:00 +14°C° 0.1 mm 2 mps 735 mmHg 90%
    03:00 +14°C° 0.1 mm 2 mps 735 mmHg 91%
    04:00 +14°C° 0.1 mm 1 mps 735 mmHg 93%
    05:00 +14°C° 0.1 mm 1 mps 735 mmHg 94%
    06:00 +14°C° 0.4 mm 1 mps 735 mmHg 93%
    07:00 +15°C° 0.4 mm 2 mps 735 mmHg 92%
    08:00 +16°C° 0.4 mm 2 mps 735 mmHg 91%
    09:00 +15°C° 0.6 mm 2 mps 735 mmHg 92%
    10:00 +14°C° 0.6 mm 3 mps 735 mmHg 94%
    11:00 +14°C° 0.6 mm 3 mps 735 mmHg 95%
    12:00 +14°C° 0.3 mm 4 mps 735 mmHg 95%
    13:00 +14°C° 0.3 mm 4 mps 735 mmHg 94%
    14:00 +14°C° 0.3 mm 4 mps 735 mmHg 94%
    15:00 +14°C° 0.2 mm 3 mps 735 mmHg 93%
    16:00 +16°C° 0.2 mm 3 mps 735 mmHg 93%
    17:00 +16°C° 0.2 mm 3 mps 735 mmHg 92%
    18:00 +16°C° 0.3 mm 3 mps 735 mmHg 94%
    19:00 +15°C° 0.3 mm 2 mps 735 mmHg 96%
    20:00 +14°C° 0.3 mm 2 mps 735 mmHg 97%
    21:00 +13°C° 0.2 mm 3 mps 735 mmHg 97%
    22:00 +13°C° 0.2 mm 3 mps 736 mmHg 97%
    23:00 +13°C° 0.2 mm 3 mps 736 mmHg 97%

    Pasado mañana, 19 Julio, Viernes

    Tiempo Temperatura Precipitaciones Viento Presión Humedad
    00:00 +13°C° 0.5 mm 4 mps 736 mmHg 97%
    01:00 +14°C° 0.5 mm 4 mps 736 mmHg 97%
    02:00 +14°C° 0.5 mm 5 mps 736 mmHg 97%
    03:00 +14°C° 0.3 mm 5 mps 736 mmHg 97%
    04:00 +14°C° 0.3 mm 5 mps 736 mmHg 96%
    05:00 +14°C° 0.3 mm 5 mps 736 mmHg 96%
    06:00 +14°C° 0.1 mm 6 mps 737 mmHg 95%
    07:00 +14°C° 0.1 mm 6 mps 737 mmHg 94%
    08:00 +14°C° 0.1 mm 6 mps 737 mmHg 93%
    09:00 +15°C° 0.1 mm 6 mps 738 mmHg 91%
    10:00 +15°C° 0.1 mm 6 mps 738 mmHg 89%
    11:00 +16°C° 0.1 mm 6 mps 738 mmHg 87%
    12:00 +16°C° 0.6 mm 6 mps 739 mmHg 86%
    13:00 +17°C° 0.6 mm 6 mps 739 mmHg 85%
    14:00 +18°C° 0.6 mm 7 mps 739 mmHg 84%
    15:00 +17°C° 0.3 mm 6 mps 739 mmHg 84%
    16:00 +17°C° 0.3 mm 6 mps 740 mmHg 84%
    17:00 +16°C° 0.3 mm 5 mps 740 mmHg 85%
    18:00 +17°C° 0 mm 4 mps 740 mmHg 87%
    19:00 +15°C° 0 mm 4 mps 740 mmHg 89%
    20:00 +16°C° 0 mm 3 mps 741 mmHg 90%
    21:00 +14°C° 0 mm 3 mps 741 mmHg 91%
    22:00 +14°C° 0 mm 3 mps 741 mmHg 91%
    23:00 +13°C° 0 mm 4 mps 742 mmHg 92%

    20 Julio, Sábado

    Tiempo Temperatura Precipitaciones Viento Presión Humedad
    00:00 +13°C° 0 mm 4 mps 742 mmHg 93%
    01:00 +13°C° 0 mm 4 mps 742 mmHg 94%
    02:00 +12°C° 0 mm 4 mps 742 mmHg 95%
    03:00 +12°C° 0 mm 4 mps 742 mmHg 95%
    04:00 +12°C° 0 mm 3 mps 742 mmHg 95%
    05:00 +12°C° 0 mm 3 mps 742 mmHg 95%
    06:00 +13°C° 0 mm 4 mps 743 mmHg 90%
    07:00 +15°C° 0 mm 4 mps 743 mmHg 85%
    08:00 +18°C° 0 mm 4 mps 743 mmHg 80%
    09:00 +17°C° 0.2 mm 5 mps 744 mmHg 78%
    10:00 +19°C° 0.2 mm 5 mps 744 mmHg 76%
    11:00 +20°C° 0.2 mm 6 mps 744 mmHg 74%
    12:00 +20°C° 0.5 mm 5 mps 744 mmHg 76%
    13:00 +20°C° 0.5 mm 5 mps 744 mmHg 77%
    14:00 +20°C° 0.5 mm 5 mps 745 mmHg 78%
    15:00 +20°C° 0.6 mm 4 mps 745 mmHg 79%
    16:00 +20°C° 0.6 mm 4 mps 745 mmHg 81%
    17:00 +20°C° 0.6 mm 4 mps 745 mmHg 82%
    18:00 +19°C° 0.1 mm 3 mps 745 mmHg 85%
    19:00 +18°C° 0.1 mm 3 mps 745 mmHg 88%
    20:00 +17°C° 0.1 mm 2 mps 745 mmHg 91%
    21:00 +16°C° 0 mm 2 mps 746 mmHg 92%
    22:00 +15°C° 0 mm 2 mps 746 mmHg 93%
    23:00 +14°C° 0 mm 2 mps 746 mmHg 94%

    21 Julio, Domingo

    Tiempo Temperatura Precipitaciones Viento Presión Humedad
    00:00 +14°C° 0 mm 2 mps 746 mmHg 94%
    01:00 +14°C° 0 mm 2 mps 746 mmHg 95%
    02:00 +13°C° 0 mm 2 mps 746 mmHg 95%
    03:00 +13°C° 0 mm 2 mps 746 mmHg 96%
    04:00 +13°C° 0 mm 2 mps 746 mmHg 96%
    05:00 +13°C° 0 mm 2 mps 747 mmHg 96%
    06:00 +15°C° 0 mm 2 mps 747 mmHg 92%
    07:00 +16°C° 0 mm 2 mps 747 mmHg 87%
    08:00 +18°C° 0 mm 2 mps 747 mmHg 83%
    09:00 +19°C° 0 mm 2 mps 747 mmHg 77%
    10:00 +20°C° 0 mm 2 mps 747 mmHg 71%
    11:00 +21°C° 0 mm 2 mps 747 mmHg 65%
    12:00 +22°C° 0 mm 3 mps 747 mmHg 64%
    13:00 +22°C° 0 mm 3 mps 747 mmHg 64%
    14:00 +22°C° 0 mm 4 mps 747 mmHg 64%
    15:00 +22°C° 0 mm 3 mps 747 mmHg 66%
    16:00 +22°C° 0 mm 3 mps 747 mmHg 68%
    17:00 +22°C° 0 mm 3 mps 747 mmHg 70%
    18:00 +20°C° 0 mm 2 mps 747 mmHg 75%
    19:00 +19°C° 0 mm 2 mps 747 mmHg 81%
    20:00 +18°C° 0 mm 1 mps 747 mmHg 87%
    21:00 +16°C° 0 mm 1 mps 747 mmHg 88%
    22:00 +16°C° 0 mm 1 mps 747 mmHg 89%
    23:00 +15°C° 0 mm 1 mps 747 mmHg 90%

    22 Julio, Lunes

    Tiempo Temperatura Precipitaciones Viento Presión Humedad
    00:00 +14°C° 0 mm 1 mps 747 mmHg 90%
    01:00 +14°C° 0 mm 1 mps 747 mmHg 91%
    02:00 +14°C° 0 mm 1 mps 747 mmHg 92%
    03:00 +14°C° 0 mm 1 mps 747 mmHg 92%
    04:00 +13°C° 0 mm 1 mps 747 mmHg 93%
    05:00 +13°C° 0 mm 1 mps 747 mmHg 93%
    06:00 +15°C° 0 mm 1 mps 747 mmHg 88%
    07:00 +18°C° 0 mm 1 mps 747 mmHg 82%
    08:00 +20°C° 0 mm 1 mps 747 mmHg 77%
    09:00 +21°C° 0 mm 1 mps 747 mmHg 71%
    10:00 +22°C° 0 mm 1 mps 747 mmHg 66%
    11:00 +24°C° 0 mm 1 mps 747 mmHg 60%
    12:00 +24°C° 0 mm 1 mps 747 mmHg 57%
    13:00 +25°C° 0 mm 1 mps 746 mmHg 54%
    14:00 +25°C° 0 mm 2 mps 746 mmHg 51%
    15:00 +25°C° 0 mm 2 mps 746 mmHg 55%
    16:00 +25°C° 0 mm 2 mps 746 mmHg 58%
    17:00 +25°C° 0 mm 2 mps 746 mmHg 62%
    18:00 +23°C° 0 mm 2 mps 746 mmHg 66%
    19:00 +19°C° 0 mm 2 mps 746 mmHg 70%
    20:00 +17°C° 0 mm 2 mps 746 mmHg 74%
    21:00 +17°C° 0 mm 2 mps 746 mmHg 76%
    22:00 +16°C° 0 mm 2 mps 746 mmHg 79%
    23:00 +15°C° 0 mm 2 mps 746 mmHg 82%
    Mostrar más